CZ-6A DEB

Satellite information

Favourite Embed

Satellite Type and Status

DEBRISIN ORBIT

Key statistics

Satellite CZ-6A DEB at a glance.

Uptime

969

Days in orbit

Revolutions

≈ 13.7

Per day

Orbit

SSO

Sun Synchronous Orbit

Inclination

99.0

Latest

Satellite identification and parameters

Extended collection of information and parameters for CZ-6A DEB.

Object identification

Identified? True

Debris? True

Object name: CZ-6A DEB

International designator: 2022-151EP

Object number (NORAD): 54415

Object ID (CCSDS): 54415

Country: PEOPLES REPUBLIC OF CHINA (PRC)

Current information (Y/N): Y

RCS size: MEDIUM

Orbital parameters

Period: 105.447 minutes

Inclination: 98.9833 deg

SMA: 7393.49 km

Apoapsis: 1279.342 km

Periapsis: 751.368 km

RAAN: 132.7366 deg

Eccentricy: 0.0357053

Argument of periapsis: 24.9972 deg

Mean anomaly: 336.8001 deg

Mean motion: 13.65615822 rev/day

Mean motion (dot): 0.00001156 rev/day2

B* drag term: 0.00094489 1/REarth

Two-line elements (TLE)

Creation date: July 6, 2025, 6:05 p.m.

Reference frame: TEME

Reference center: EARTH

Epoch: July 6, 2025, 10:04 a.m. UTC

TLE line 0: 0 CZ-6A DEB

TLE line 1: 1 54415U 22151EP 25187.41953023 .00001156 00000-0 94489-3 0 9990

TLE line 2: 2 54415 98.9833 132.7366 0357053 24.9972 336.8001 13.65615822131628

Live tracking on map

Real-time ground track for satellite CZ-6A DEB.

In-orbit conjunctions

A list of the most updated potential collisions computed for object CZ-6A DEB.

Target Orbit TCA Probability of collision Miss distance Type
OPS 4682 DEB SSO 2024-06-28 01:13:09 0.00014213 138.0 (m) DEBRIS
FENGYUN 1C DEB SSO 2024-06-20 07:15:06 0.0003587297 53.0 (m) DEBRIS

Associated space launch

Chinese satellite reported for atmospheric/ocean/environmental/spatial parameter research purposes, details TBD.

CZ-6A DEB was lifted into orbit during the mission ‘Long March 6A | Yunhai 3’, on board a Long March 6A space rocket.

The launch took place on Nov. 11, 2022, 10:52 p.m. from Launch Complex 9A.

For more information about the launch, click the button.

Launch to space Long March 6A | Yunhai 3
Long March 6A | Yunhai 3

Agency: N/A

Status: Launch Successful

Launch date: Nov. 11, 2022, 10:52 p.m. UTC

Rocket: Long March 6A

Launch pad: Launch Complex 9A

Location: Taiyuan Satellite Launch Center, People's Republic of China

...

Latest news about this satellite

There are no fresh news available about this satellite. Check back as we update our databases every day.


Newsletter sign-up

Weekly statistics, charts and insights to help you stay on top of the space industry.